Regional Weather Roundup
Issued by NWS Upton, NY

Home | Current Version | Previous Version | Text Only | Print | Product List | Glossary On
Versions: 1 2 3 4 5 6 7 8 9 10 11 12 13 14 15 16 17 18 19 20 21 22 23 24 25 26 27 28 29 30 31 32 33 34 35 36 37 38 39 40 41 42 43 44 45 46 47 48 49 50
000
ASUS41 KOKX 230808
RWROKX

REGIONAL WEATHER ROUNDUP
NATIONAL WEATHER SERVICE NEW YORK NY
300 AM EST MON JAN 23 2017

NOTE: "FAIR" INDICATES FEW OR NO CLOUDS BELOW 12,000 FEET WITH NO
SIGNIFICANT WEATHER AND/OR OBSTRUCTIONS TO VISIBILITY.

NYZ071-072-176-178-NJZ106-104-230900-
NEW YORK CITY METRO AREA

CITY           SKY/WX    TMP DP  RH WIND       PRES   REMARKS
Central Park   CLOUDY    42  39  89 E16G32    29.84S
Wall St Helipt   N/A     43  39  86 NE17G30   29.82R
LaGuardia APRT CLOUDY    44  39  82 E28G36    29.82F
Kennedy INTL   CLOUDY    45  42  89 E24G31    29.82F
Breezy Point     N/A     43 N/A N/A NE15G24     N/A
Newark/Liberty CLOUDY    44  39  82 NE21G31   29.81F
Teterboro      DRIZZLE   44  38  79 E16G28    29.82F
$$

NYZ177-179-078>081-230900-
LONG ISLAND NEW YORK

CITY           SKY/WX    TMP DP  RH WIND       PRES   REMARKS
Jones Beach      N/A     41 N/A N/A E29G35      N/A
Matinecock PT  NOT AVBL
Farmingdale    CLOUDY    43  38  82 E15G26    29.81F
MacArthur/ISP  CLOUDY    42  39  89 NE15G31   29.81F
Shirley        CLOUDY    41  39  93 NE8G24    29.82F
Westhampton    CLOUDY    41  38  89 NE18G25   29.84F
Southampton    NOT AVBL
Bridgehampton  NOT AVBL
East Hampton   CLOUDY    40  37  86 NE13G24   29.86F WCI  33
Montauk          N/A     41  38  89 NE13G30   29.89R
$$

NYZ052-065-067-230900-
HUDSON VALLEY

CITY           SKY/WX    TMP DP  RH WIND       PRES   REMARKS
White Plains   MOCLDY    42  37  82 NE16G25   29.81F
Newburgh       CLOUDY    39  37  93 E12G17    29.86F WCI  32
Montgomery     CLOUDY    41  36  82 NE10      29.84F
Poughkeepsie   CLOUDY    40  34  79 E12G18    29.87S WCI  33
Albany         CLOUDY    37  34  89 N3        29.92S
$$

NJZ001-105-106-008-010-013-015-019>022-104-230900-
NEW JERSEY

CITY           SKY/WX    TMP DP  RH WIND       PRES   REMARKS
Newark/Liberty CLOUDY    44  39  82 NE21G31   29.81F
Teterboro      DRIZZLE   44  38  79 E16G28    29.82F
Caldwell       CLOUDY    44  38  79 E14G28    29.81F
Somerville     CLOUDY    44  38  79 E12G25    29.77S
Linden         CLOUDY    43  39  85 E18G26    29.81R
Sussex         CLOUDY    40  39  97 NE10      29.81F FOG     WCI  33
Andover          N/A     41  38  89 NE7       29.79F
Trenton        CLOUDY    44  41  89 E18G31    29.75R
Millville      LGT RAIN  47  47 100 NE17G25   29.67S FOG
Atlantic City  LGT RAIN  47  44  90 NE24G35   29.69S FOG
Wrightstown    LGT RAIN  43  42  95 NE21G31   29.72S FOG
Toms River     LGT RAIN  44  43  96 NE20G30   29.76R FOG
Belmar         CLOUDY    42  41  96 NE24G33   29.77R FOG
$$

PAZ047>061-062-071-230900-
EASTERN PENNSYLVANIA

CITY           SKY/WX    TMP DP  RH WIND       PRES   REMARKS
Philadelphia   CLOUDY    45  42  89 NE16G29   29.72F FOG
Allentown      CLOUDY    46  38  73 E16G25    29.75S
Scranton       CLOUDY    43  38  82 NE10G20   29.75S
$$

CTZ002-004>006-009-010-012-RIZ004-006-007-MAZ004-011-015-230900-
SOUTHERN NEW ENGLAND
 IN CT

CITY           SKY/WX    TMP DP  RH WIND       PRES   REMARKS
Bradley INTL   CLOUDY    39  34  82 NE10      29.95R WCI  32
Hartford       CLOUDY    41  35  79 E8G21     29.93R
Danbury        CLOUDY    40  36  86 E9G22     29.86F WCI  34
Wtrbury/Oxford CLOUDY    39  34  81 E9G21     29.87F WCI  33
Bridgeport     CLOUDY    44  37  76 NE20      29.86F
Meriden        CLOUDY    43  34  70 E15G21    29.91R
New Haven      CLOUDY    42  36  79 NE14G22   29.87F
Chester        CLOUDY    41  36  81 NE15G24   29.88S
Groton         CLOUDY    42  36  79 NE14G29   29.90R
Wilimantic     CLOUDY    41  36  82 NE14      29.94R

 IN RI

CITY           SKY/WX    TMP DP  RH WIND       PRES   REMARKS
Providence     CLOUDY    40  33  76 NE14G23   29.95R WCI  32
Block Island   NOT AVBL
Westerly       CLOUDY    42  33  70 NE16G24   29.92R
 IN MA

CITY           SKY/WX    TMP DP  RH WIND       PRES   REMARKS
Boston         CLOUDY    39  32  76 NE25      30.01R WCI  28
Worcester      CLOUDY    32  31  96 NE13G23   29.93S FOG     WCI  22
Westfield      LGT RAIN  37  34  89 NE7       29.95S WCI  32
Provincetown   CLOUDY    38  33  82 E21G28    29.98R WCI  28
Nantucket      CLOUDY    41  32  70 NE23G30   29.90F
$$

ANZ330-335-338-340-345-350-353-355-230900-
COASTAL MARINE OBSERVATIONS


STATION/POSITION TIME  SKY/WX   TEMP    WIND        PRES    VSBY  WAVE
                                AIR SEA DIR/SP/G                  HT/PER
                 (UTC)          (F)     (DEG/KT/KT) (MB)    (MI)  (FT/S)
NY HARB ENTRANCE 0650            43 43   60/ 27/ 33 1007.9          9/ 7
20 S FIRE ISLAND 0750            45 46   60/ 29/ 35 1007.0         11/ 8
GREAT SOUTH BAY  NOT AVBL
23 SSW MONTAUK P 0650            44 47   70/ 27/ 33 1009.6         10/ 7
15 E BARNEGAT LI 0730               47                N/A          11/ 8
HUDSON CANYON    0650            51 52              1004.9         10/ 8
KINGS POINT      0742            42 40              1009.4
EXECUTION ROCKS  0745            41      60/ 19/ 27   N/A
CENTRAL LI SOUND 0730            42      80/ 19/ 21   N/A           3/ 4
EASTERN LI SOUND NOT AVBL
ROBBINS REEF     0742            43      60/ 22/ 26 1009.3
$$


>>>>>>>>>>>>>>>>>>>>>>>>>>>> KEY <<<<<<<<<<<<<<<<<<<<<<<<<<<
>                                                          <
>     SKY/WX - Sky Condition/Present Weather               <
>     TMP    - Temperature in Fahrenheit                   <
>     DP     - Dew Point in Fahrenheit                     <
>     RH     - Relative Humidity in Percent                <
>     WIND   - Direction (from) and Speed in MPH           <
>     PRES   - Mean Sea Level Pressure (inches of Hg)      <
>     WCI    - Wind Chill Index                            <
>     VSB    - VISIBILITY IN MILES                         <
>     HX     - HEAT INDEX                                  <
>     TC     - TEMPERATURE IN CELSIUS                      <
>     VRB    - VARIABLE WIND DIRECTION                     <
>                                                          <
>>>>>>>>>>>>>>>>>>>>>>>>>>>> KEY <<<<<<<<<<<<<<<<<<<<<<<<<<<



USA.gov is the U.S. government's official web portal to all federal, state and local government web resources and services.